Total_Precipitation_Accumulation
0.10 0.12 0.05 0.01 0.00 0.00 0.03 0.06 0.05 0.04 0.02 0.00 0.00 0.00 0.00 0.00 0.00 0.00 0.00 0.00 0.00 0.00 0.00 0.00 0.00 0.00 0.00 0.00 0.00 0.00 0.00 0.00 0.00
0.08 0.11 0.07 0.04 0.02 0.00 0.02 0.05 0.05 0.04 0.02 0.00 0.00 0.00 0.00 0.00 0.00 0.00 0.00 0.00 0.00 0.00 0.00 0.00 0.00 0.00 0.00 0.00 0.00 0.00 0.00 0.00 0.00
0.08 0.10 0.08 0.05 0.02 0.02 0.02 0.08 0.06 0.08 0.10 0.08 0.02 0.00 0.00 0.00 0.00 0.00 0.00 0.00 0.00 0.00 0.00 0.00 0.00 0.00 0.00 0.00 0.00 0.00 0.00 0.00 0.00
0.04 0.08 0.06 0.06 0.07 0.08 0.06 0.07 0.10 0.11 0.18 0.21 0.08 0.02 0.00 0.00 0.00 0.00 0.00 0.00 0.00 0.00 0.00 0.00 0.00 0.00 0.00 0.00 0.00 0.00 0.00 0.00 0.00
0.01 0.01 0.02 0.05 0.05 0.06 0.07 0.05 0.09 0.19 0.21 0.23 0.23 0.04 0.00 0.00 0.00 0.00 0.00 0.00 0.00 0.00 0.00 0.00 0.00 0.00 0.00 0.00 0.00 0.00 0.00 0.00 0.00
0.00 0.00 0.00 0.01 0.02 0.04 0.04 0.05 0.08 0.12 0.10 0.05 0.05 0.08 0.02 0.02 0.01 0.00 0.00 0.00 0.00 0.00 0.00 0.00 0.00 0.00 0.00 0.00 0.00 0.00 0.00 0.00 0.00
0.02 0.00 0.00 0.00 0.00 0.01 0.02 0.03 0.04 0.01 0.00 0.00 0.02 0.03 0.05 0.05 0.02 0.01 0.00 0.00 0.00 0.00 0.00 0.00 0.00 0.00 0.00 0.00 0.00 0.00 0.00 0.00 0.00
0.01 0.00 0.00 0.00 0.00 0.00 0.00 0.00 0.01 0.00 0.01 0.01 0.02 0.06 0.07 0.05 0.03 0.01 0.00 0.00 0.00 0.00 0.00 0.01 0.01 0.00 0.00 0.00 0.00 0.00 0.00 0.00 0.00
0.01 0.00 0.00 0.00 0.00 0.00 0.00 0.00 0.00 0.00 0.02 0.03 0.04 0.05 0.04 0.04 0.03 0.01 0.00 0.00 0.00 0.00 0.00 0.01 0.03 0.02 0.00 0.00 0.00 0.00 0.00 0.00 0.00
0.02 0.02 0.01 0.00 0.00 0.00 0.01 0.05 0.06 0.08 0.09 0.08 0.07 0.05 0.05 0.04 0.02 0.01 0.01 0.01 0.00 0.00 0.01 0.01 0.03 0.04 0.03 0.01 0.00 0.00 0.00 0.00 0.00
0.00 0.02 0.03 0.02 0.01 0.02 0.03 0.09 0.14 0.13 0.12 0.09 0.07 0.05 0.07 0.12 0.09 0.07 0.09 0.06 0.03 0.01 0.02 0.02 0.07 0.08 0.05 0.04 0.03 0.01 0.01 0.00 0.00
0.00 0.00 0.00 0.02 0.02 0.05 0.08 0.12 0.14 0.18 0.18 0.12 0.11 0.12 0.10 0.09 0.17 0.18 0.14 0.11 0.09 0.06 0.03 0.06 0.05 0.07 0.08 0.10 0.08 0.04 0.02 0.01 0.01
0.00 0.00 0.00 0.01 0.03 0.05 0.07 0.09 0.13 0.14 0.16 0.18 0.18 0.21 0.23 0.22 0.20 0.20 0.14 0.10 0.08 0.09 0.06 0.08 0.09 0.06 0.05 0.09 0.11 0.11 0.07 0.04 0.02
0.00 0.00 0.00 0.00 0.02 0.04 0.06 0.08 0.10 0.15 0.14 0.12 0.14 0.12 0.13 0.15 0.24 0.25 0.19 0.15 0.14 0.10 0.11 0.12 0.14 0.12 0.12 0.09 0.16 0.19 0.19 0.16 0.15
0.00 0.00 0.00 0.00 0.00 0.02 0.04 0.06 0.09 0.12 0.16 0.21 0.21 0.22 0.21 0.20 0.24 0.38 0.49 0.41 0.31 0.26 0.24 0.25 0.24 0.22 0.18 0.15 0.14 0.20 0.26 0.30 0.26
0.00 0.00 0.00 0.00 0.00 0.00 0.01 0.05 0.08 0.08 0.13 0.19 0.10 0.09 0.09 0.08 0.06 0.13 0.25 0.33 0.31 0.31 0.34 0.39 0.41 0.42 0.40 0.35 0.31 0.29 0.28 0.26 0.22
0.00 0.00 0.00 0.00 0.01 0.01 0.02 0.05 0.08 0.09 0.16 0.21 0.17 0.07 0.06 0.05 0.04 0.08 0.10 0.16 0.31 0.31 0.29 0.32 0.34 0.34 0.37 0.37 0.33 0.31 0.33 0.33 0.32
0.00 0.00 0.00 0.00 0.01 0.01 0.02 0.04 0.07 0.08 0.11 0.22 0.33 0.26 0.15 0.15 0.16 0.13 0.16 0.17 0.22 0.26 0.38 0.36 0.29 0.29 0.30 0.26 0.26 0.23 0.21 0.23 0.24
0.00 0.00 0.01 0.01 0.01 0.02 0.03 0.05 0.07 0.12 0.12 0.17 0.27 0.38 0.35 0.36 0.33 0.26 0.28 0.17 0.18 0.31 0.33 0.32 0.36 0.39 0.38 0.37 0.33 0.31 0.31 0.31 0.30
0.00 0.01 0.04 0.04 0.03 0.01 0.03 0.08 0.09 0.13 0.18 0.24 0.30 0.40 0.46 0.71 0.77 0.55 0.28 0.22 0.26 0.29 0.41 0.45 0.45 0.51 0.50 0.58 0.37 0.17 0.15 0.18 0.21